Plymouth, NH

6:54 AM EST on February 13, 2016 (GMT -0500)
Plymouth

Weather History for K1P1 - May, 2014

Change the Weather History Date:

Sunday, May 11, 2014

  Actual Average (KLCI) Record (KLCI)
Temperature  
Mean Temperature 60 °F -  
Max Temperature 72 °F 64 °F 85 °F (1987)
Min Temperature 46 °F 42 °F 35 °F (2008)
Degree Days  
Heating Degree Days 4    
Growing Degree Days 10 (Base 50)    
Moisture  
Dew Point 35 °F    
Average Humidity 38    
Maximum Humidity 84    
Minimum Humidity 17    
Precipitation  
Precipitation 0.00 in - - ()
Sea Level Pressure  
Sea Level Pressure 29.90 in    
Wind  
Wind Speed 9 mph (WNW)    
Max Wind Speed 17 mph    
Max Gust Speed 25 mph    
Visibility 10 miles    
Events      
Averages and records for this station are not official NWS values.
T = Trace of Precipitation, MM = Missing Value Source: NWS Daily Summary

Daily Weather History Graph

Daily Weather History Graph

Search for Another Location

Airport or City:

Trip Planner

Search our weather history database for the weather conditions in past years. The results will help you decide how hot, cold, wet, or windy it might be!

Date:

Astronomy

May. 11, 2014 Rise Set
Actual Time 5:26 AM EDT 8:01 PM EDT
Civil Twilight 4:53 AM EDT 8:34 PM EDT
Nautical Twilight 4:12 AM EDT 9:15 PM EDT
Astronomical Twilight 3:25 AM EDT 10:02 PM EDT
Moon 4:48 PM EDT (5/11) 3:36 AM EDT (5/11)
Length of Visible Light 15h 40m
Length of Day
14h 35m
Waxing Gibbous, 89% of the Moon is Illuminated
May 11
Waxing Gibbous
May 14
Full
May 21
Last Quarter
May 28
New
Jun 5
First Quarter

Hourly Weather History & Observations

Time (EDT) Temp. Dew Point Humidity Pressure Visibility Wind Dir Wind Speed Gust Speed Precip Events Conditions
12:15 AM 67.8 °F 36.0 °F 31% 29.76 in 10.0 mi West 9.2 mph - N/A   Clear
12:35 AM 67.5 °F 29.7 °F 24% 29.77 in 10.0 mi West 13.8 mph 20.7 mph N/A   Clear
12:55 AM 66.6 °F 19.8 °F 17% 29.78 in 10.0 mi West 12.7 mph 20.7 mph N/A   Clear
1:15 AM 65.8 °F 19.4 °F 17% 29.79 in 10.0 mi West 12.7 mph 21.9 mph N/A   Clear
1:35 AM 64.6 °F 22.5 °F 20% 29.79 in 10.0 mi West 11.5 mph 17.3 mph N/A   Clear
1:55 AM 63.7 °F 28.2 °F 26% 29.79 in 10.0 mi West 9.2 mph 19.6 mph N/A   Clear
2:15 AM 63.0 °F 29.5 °F 28% 29.79 in 10.0 mi West 9.2 mph - N/A   Clear
2:35 AM 61.7 °F 29.7 °F 30% 29.79 in 10.0 mi Calm Calm - N/A   Clear
2:55 AM 61.0 °F 32.0 °F 34% 29.79 in 10.0 mi WNW 4.6 mph - N/A   Clear
3:15 AM 60.4 °F 33.4 °F 36% 29.80 in 10.0 mi WNW 6.9 mph - N/A   Clear
3:35 AM 60.1 °F 34.9 °F 39% 29.80 in 10.0 mi NW 5.8 mph - N/A   Clear
3:55 AM 59.9 °F 35.8 °F 41% 29.80 in 10.0 mi West 6.9 mph - N/A   Clear
4:15 AM 59.7 °F 36.5 °F 42% 29.81 in 10.0 mi WNW 9.2 mph - N/A   Clear
4:35 AM 59.7 °F 36.7 °F 42% 29.81 in 10.0 mi NW 9.2 mph 19.6 mph N/A   Clear
5:15 AM 58.5 °F 37.0 °F 45% 29.82 in 10.0 mi WNW 6.9 mph - N/A   Clear
5:35 AM 58.3 °F 36.9 °F 45% 29.83 in 10.0 mi West 6.9 mph - N/A   Clear
5:55 AM 57.6 °F 37.2 °F 47% 29.83 in 10.0 mi West 4.6 mph - N/A   Clear
6:15 AM 56.8 °F 37.6 °F 49% 29.84 in 10.0 mi West 3.5 mph - N/A   Clear
6:35 AM 57.4 °F 37.6 °F 48% 29.84 in 10.0 mi West 6.9 mph - N/A   Clear
6:55 AM 57.4 °F 38.1 °F 49% 29.86 in 10.0 mi WNW 6.9 mph - N/A   Clear
7:15 AM 57.4 °F 38.7 °F 50% 29.86 in 10.0 mi WNW 4.6 mph - N/A   Clear
7:35 AM 57.2 °F 39.4 °F 51% 29.87 in 10.0 mi NW 4.6 mph - N/A   Clear
7:55 AM 57.2 °F 40.1 °F 53% 29.88 in 10.0 mi NW 3.5 mph - N/A   Clear
8:15 AM 59.9 °F 38.8 °F 46% 29.88 in 10.0 mi NW 9.2 mph - N/A   Clear
8:35 AM 61.2 °F 38.8 °F 44% 29.89 in 10.0 mi NW 9.2 mph - N/A   Clear
8:55 AM 61.5 °F 37.6 °F 41% 29.89 in 10.0 mi WNW 11.5 mph 18.4 mph N/A   Clear
9:15 AM 61.9 °F 37.0 °F 40% 29.90 in 10.0 mi West 11.5 mph 18.4 mph N/A   Clear
9:35 AM 62.6 °F 37.4 °F 39% 29.91 in 10.0 mi WNW 12.7 mph 18.4 mph N/A   Clear
9:55 AM 63.5 °F 37.6 °F 38% 29.91 in 10.0 mi NW 10.4 mph 17.3 mph N/A   Clear
10:15 AM 63.5 °F 36.7 °F 37% 29.91 in 10.0 mi NW 6.9 mph 10.4 mph N/A   Clear
10:35 AM 64.6 °F 38.1 °F 38% 29.92 in 10.0 mi WNW 8.1 mph - N/A   Clear
10:55 AM 65.3 °F 35.6 °F 33% 29.92 in 10.0 mi NW 17.3 mph 23.0 mph N/A   Clear
11:15 AM 65.7 °F 36.7 °F 34% 29.93 in 10.0 mi WNW 13.8 mph 17.3 mph N/A   Clear
11:35 AM 65.8 °F 37.2 °F 35% 29.92 in 10.0 mi WNW 10.4 mph 19.6 mph N/A   Clear
11:55 AM 67.3 °F 36.9 °F 33% 29.92 in 10.0 mi WNW 15.0 mph 19.6 mph N/A   Clear
12:15 PM 67.3 °F 35.2 °F 31% 29.92 in 10.0 mi NW 10.4 mph 17.3 mph N/A   Clear
12:35 PM 68.9 °F 34.9 °F 29% 29.92 in 10.0 mi WNW 13.8 mph 18.4 mph N/A   Clear
12:55 PM 68.2 °F 35.6 °F 30% 29.92 in 10.0 mi WNW 12.7 mph 24.2 mph N/A   Clear
1:15 PM 68.7 °F 35.1 °F 29% 29.92 in 10.0 mi WNW 10.4 mph - N/A   Clear
1:35 PM 69.6 °F 35.4 °F 28% 29.92 in 10.0 mi NNW 12.7 mph 17.3 mph N/A   Clear
1:55 PM 69.8 °F 34.3 °F 27% 29.92 in 10.0 mi WNW 8.1 mph 16.1 mph N/A   Clear
2:15 PM 70.2 °F 31.3 °F 24% 29.92 in 10.0 mi WNW 15.0 mph 21.9 mph N/A   Clear
2:35 PM 70.7 °F 29.3 °F 21% 29.92 in 10.0 mi West 11.5 mph 20.7 mph N/A   Clear
2:55 PM 71.1 °F 27.7 °F 20% 29.92 in 10.0 mi WNW 13.8 mph 20.7 mph N/A   Clear
3:15 PM 71.6 °F 28.9 °F 21% 29.92 in 10.0 mi WNW 15.0 mph 24.2 mph N/A   Clear
3:35 PM 71.4 °F 29.5 °F 21% 29.92 in 10.0 mi NW 13.8 mph 24.2 mph N/A   Clear
3:55 PM 71.6 °F 28.6 °F 20% 29.92 in 10.0 mi WNW 13.8 mph 21.9 mph N/A   Clear
4:15 PM 72.5 °F 29.7 °F 21% 29.92 in 10.0 mi West 12.7 mph 18.4 mph N/A   Clear
4:35 PM 72.1 °F 29.1 °F 20% 29.93 in 10.0 mi WNW 13.8 mph 25.3 mph N/A   Clear
4:55 PM 72.0 °F 28.2 °F 20% 29.93 in 10.0 mi WNW 11.5 mph 23.0 mph N/A   Clear
5:15 PM 72.0 °F 29.1 °F 20% 29.92 in 10.0 mi West 13.8 mph 17.3 mph N/A   Clear
5:35 PM 72.3 °F 29.7 °F 21% 29.93 in 10.0 mi West 13.8 mph 23.0 mph N/A   Clear
5:55 PM 72.3 °F 32.0 °F 23% 29.93 in 10.0 mi WNW 11.5 mph - N/A   Clear
6:15 PM 70.9 °F 32.0 °F 24% 29.93 in 10.0 mi WNW 12.7 mph 17.3 mph N/A   Clear
6:35 PM 71.8 °F 31.5 °F 23% 29.93 in 10.0 mi West 12.7 mph 20.7 mph N/A   Clear
6:55 PM 70.3 °F 31.8 °F 24% 29.93 in 10.0 mi West 8.1 mph - N/A   Clear
7:15 PM 70.5 °F 32.4 °F 24% 29.94 in 10.0 mi WNW 8.1 mph - N/A   Clear
7:35 PM 69.8 °F 32.0 °F 25% 29.94 in 10.0 mi Calm Calm - N/A   Clear
7:55 PM 67.6 °F 32.2 °F 27% 29.95 in 10.0 mi Calm Calm - N/A   Clear
8:15 PM 63.5 °F 35.6 °F 35% 29.96 in 10.0 mi Calm Calm - N/A   Clear
8:35 PM 60.6 °F 37.8 °F 43% 29.97 in 10.0 mi Calm Calm - N/A   Clear
8:55 PM 57.7 °F 40.1 °F 52% 29.98 in 10.0 mi Calm Calm - N/A   Clear
9:15 PM 55.0 °F 41.9 °F 61% 29.99 in 10.0 mi Calm Calm - N/A   Clear
9:35 PM 53.8 °F 41.7 °F 64% 29.99 in 10.0 mi Calm Calm - N/A   Clear
9:55 PM 53.6 °F 40.5 °F 61% 30.00 in 10.0 mi Calm Calm - N/A   Clear
10:15 PM 51.8 °F 43.2 °F 72% 30.00 in 10.0 mi Calm Calm - N/A   Clear
10:35 PM 51.3 °F 43.2 °F 74% 30.01 in 10.0 mi Calm Calm - N/A   Clear
10:55 PM 49.8 °F 42.8 °F 77% 30.01 in 10.0 mi Calm Calm - N/A   Clear
11:15 PM 49.1 °F 43.0 °F 79% 30.01 in 10.0 mi Calm Calm - N/A   Clear
11:35 PM 49.3 °F 42.3 °F 77% 30.01 in 10.0 mi Calm Calm - N/A   Clear
11:55 PM 46.6 °F 41.9 °F 84% 30.01 in 10.0 mi Calm Calm - N/A   Clear